This is the latest recevied weather packets stored in our database for station/object W4SKW. If no packets are shown the sender has not sent any weather packets the latest 10 day(s).
| Time | Temp. | Humidity | Pressure | Rain* | Wind** | Luminosity | Snow |
|---|---|---|---|---|---|---|---|
| 1777591083 | 17.22° C | 71% | 1013.9 hPa | 0 mm | - | 55 W/m² | - |
| 1777590779 | 17.78° C | 69% | 1014 hPa | 0 mm | - | 57 W/m² | - |
| 1777590475 | 18.33° C | 53% | 1014 hPa | 0 mm | - | 50 W/m² | - |
| 1777590172 | 18.89° C | 62% | 1013.9 hPa | 0 mm | - | 47 W/m² | - |
| 1777589868 | 20° C | 51% | 1013.9 hPa | 0 mm | - | 102 W/m² | - |
| 1777589564 | 20.56° C | 54% | 1013.9 hPa | 0 mm | - | 130 W/m² | - |
| 1777589262 | 20.56° C | 51% | 1013.7 hPa | 0 mm | - | 140 W/m² | - |
| 1777588959 | 20° C | 52% | 1013.8 hPa | 0 mm | - | 167 W/m² | - |
| 1777588654 | 21.11° C | 50% | 1013.9 hPa | 0 mm | - | 203 W/m² | - |
| 1777588350 | 21.11° C | 50% | 1013.9 hPa | 0 mm | - | 203 W/m² | - |
| 1777588046 | 20° C | 52% | 1014 hPa | 0 mm | - | 247 W/m² | - |
| 1777587742 | 20° C | 52% | 1014 hPa | 0 mm | - | 247 W/m² | - |
| 1777587435 | 20° C | 47% | 1014.1 hPa | 0 mm | - | 213 W/m² | - |
| 1777587133 | 20° C | 48% | 1013.9 hPa | 0 mm | - | 274 W/m² | - |
| 1777586828 | 20° C | 55% | 1013.7 hPa | 0 mm | - | 200 W/m² | - |
| 1777586523 | 19.44° C | 51% | 1013.7 hPa | 0 mm | - | 202 W/m² | - |
| 1777586219 | 20° C | 48% | 1013.9 hPa | 0 mm | - | 195 W/m² | - |
| 1777585917 | 20° C | 48% | 1013.6 hPa | 0 mm | - | 163 W/m² | - |
| 1777585612 | 19.44° C | 59% | 1014.1 hPa | 0 mm | - | 196 W/m² | - |
| 1777585307 | 19.44° C | 59% | 1014.1 hPa | 0 mm | - | 196 W/m² | - |
| 1777585002 | 19.44° C | 51% | 1013.9 hPa | 0 mm | - | 178 W/m² | - |
| 1777584699 | 19.44° C | 54% | 1013.7 hPa | 0 mm | - | 177 W/m² | - |
| 1777584397 | 19.44° C | 49% | 1013.8 hPa | 0 mm | - | 170 W/m² | - |
| 1777584093 | 19.44° C | 60% | 1013.9 hPa | 0 mm | - | 213 W/m² | - |
| 1777583792 | 19.44° C | 59% | 1014 hPa | 0 mm | - | 216 W/m² | - |
* Rain latest hour (hover to see other rain measurements)
** Current wind speed in m/s (hover to see current wind gust speed)